logo
Search for airport 
image banner adimage banner adimage banner ad
image banner ad

EHKT - K15-Fa-1 (Oil Platform)

Located in , Netherlands

ICAO - , IATA -

Data provided by Airmate  

General information

Coordinates: N53°14'50" E3°59'10"
Elevation is feet MSL.
 
View others Airports in Noord-Holland

Operational data

Special qualification required
Current time UTC:
Current local time:
Weather at : EHKV - K14-Fa-1C (Oil Platform) ( 24 km )
METAR: EHKV 231725Z AUTO 32019KT 9999 DZ FEW007 BKN010 BKN016 17/15 Q1018
View NOTAMs / SUP AIP / TFR affecting this airport [VIEW]
Communications frequencies: [VIEW]

Runways:

Airport contact information

Address: Netherlands

Satellite view of EHKT